Weather History for KXNA - August, 2012

Change the Weather History Date:

Friday, August 24, 2012

  Actual Average Record
Temperature  
Mean Temperature 74 °F -  
Max Temperature 90 °F - - ()
Min Temperature 60 °F - - ()
Cooling Degree Days 9    
Growing Degree Days 24 (Base 50)    
Moisture  
Dew Point 56 °F    
Average Humidity 52    
Maximum Humidity 75    
Minimum Humidity 32    
Precipitation  
Precipitation 0.00 in - - ()
Sea Level Pressure  
Sea Level Pressure 29.95 in    
Wind  
Wind Speed 5 mph (SSE)    
Max Wind Speed 15 mph    
Max Gust Speed 23 mph    
Visibility 10 miles    
Events      
T = Trace of Precipitation, MM = Missing Value Source: NWS Daily Summary

Daily Weather History Graph

Daily Weather History Graph

Search for Another Location

Airport or City:

Trip Planner

Search our weather history database for the weather conditions in past years. The results will help you decide how hot, cold, wet, or windy it might be!

Date:

Astronomy

Aug. 24, 2012 Rise Set
Actual Time 6:42 AM CDT 7:55 PM CDT
Civil Twilight 6:16 AM CDT 8:22 PM CDT
Nautical Twilight 5:44 AM CDT 8:53 PM CDT
Astronomical Twilight 5:11 AM CDT 9:26 PM CDT
Moon 2:21 PM CDT (8/24) No Moon Set
Length of Visible Light 14h 05m
Length of Day
13h 12m
First Quarter, 52% of the Moon is Illuminated
Aug 24
First Quarter
Aug 31
Full
Sep 8
Last Quarter
Sep 15
New
Sep 22
First Quarter

Hourly Weather History & Observations

Time (CDT) Temp. Heat Index Dew Point Humidity Pressure Visibility Wind Dir Wind Speed Gust Speed Precip Events Conditions
12:53 AM 66.0 °F - 51.1 °F 59% 30.00 in 10.0 mi Calm Calm - N/A   Clear
1:53 AM 64.0 °F - 52.0 °F 65% 29.99 in 10.0 mi South 4.6 mph - N/A   Clear
2:53 AM 64.0 °F - 52.0 °F 65% 29.99 in 10.0 mi Calm Calm - N/A   Clear
3:53 AM 62.1 °F - 52.0 °F 70% 29.99 in 10.0 mi Calm Calm - N/A   Clear
4:53 AM 62.1 °F - 52.0 °F 70% 29.99 in 10.0 mi Calm Calm - N/A   Clear
5:53 AM 60.1 °F - 52.0 °F 75% 29.98 in 10.0 mi Calm Calm - N/A   Clear
6:53 AM 61.0 °F - 53.1 °F 75% 29.97 in 10.0 mi Calm Calm - N/A   Clear
7:53 AM 66.9 °F - 55.9 °F 68% 30.00 in 10.0 mi Calm Calm - N/A   Clear
8:53 AM 73.9 °F - 55.9 °F 53% 30.01 in 10.0 mi South 8.1 mph - N/A   Clear
9:53 AM 79.0 °F - 61.0 °F 54% 30.01 in 10.0 mi South 11.5 mph - N/A   Clear
10:53 AM 82.9 °F 83.3 °F 61.0 °F 47% 30.00 in 10.0 mi SSE 15.0 mph - N/A   Clear
11:53 AM 84.9 °F 84.8 °F 60.1 °F 43% 29.98 in 10.0 mi South 15.0 mph 21.9 mph N/A   Clear
12:53 PM 84.9 °F 84.2 °F 57.9 °F 40% 29.96 in 10.0 mi South 11.5 mph - N/A   Partly Cloudy
1:53 PM 87.1 °F 85.7 °F 55.9 °F 35% 29.94 in 10.0 mi SE 13.8 mph 23.0 mph N/A   Partly Cloudy
2:53 PM 87.1 °F 85.3 °F 55.0 °F 33% 29.93 in 10.0 mi South 12.7 mph - N/A   Clear
3:53 PM 87.1 °F 85.7 °F 55.9 °F 35% 29.91 in 10.0 mi SSE 11.5 mph 20.7 mph N/A   Clear
4:53 PM 88.0 °F 86.1 °F 55.0 °F 32% 29.90 in 10.0 mi SE 10.4 mph - N/A   Clear
5:53 PM 86.0 °F 84.7 °F 55.9 °F 36% 29.88 in 10.0 mi SE 10.4 mph - N/A   Clear
6:53 PM 84.9 °F 83.7 °F 55.9 °F 37% 29.88 in 10.0 mi SE 8.1 mph - N/A   Scattered Clouds
7:53 PM 79.0 °F - 62.1 °F 56% 29.88 in 10.0 mi ESE 5.8 mph - 0.00 in   Scattered Clouds
8:53 PM 79.0 °F - 60.1 °F 52% 29.88 in 10.0 mi ESE 9.2 mph - 0.00 in   Partly Cloudy
9:53 PM 80.1 °F 80.6 °F 57.9 °F 47% 29.89 in 10.0 mi ESE 9.2 mph - N/A   Clear
10:53 PM 78.1 °F - 57.9 °F 50% 29.90 in 10.0 mi SE 9.2 mph - N/A   Clear
11:53 PM 77.0 °F - 60.1 °F 56% 29.90 in 10.0 mi SE 5.8 mph - N/A   Clear